Погода в Риге

Погода в Риге : погода сейчас, прогноз погоды и архив. Всё, что Вы хотите узнать о погоде в Риге!

Поиск расширенной информации на нашем сайте:

Другие новости

Новости СМИ2

Главная страница сайта

Новости сайта

03.07.2017

Напоминаем, что на нашем специализированном сайте Метеоцентр.Азия вы можете получить высокодетализированные автоматические прогнозы погоды по пунктам России, СНГ и мира в авиационном формате (включающие направление и скорость ветра, видимость, явления погоды, количество и форму облачности, нижнюю и верхнюю границу облачности).


Погода в Риге - сегодня

Время (UTC), дата Ветер
(°,м/с) 
Видим.   Явления Облачность Т
(°С)
Тd
(°С)
f(%) Тe
(°С)
Pmin
(гПа)
dP
(гПа)
Po
(мм)
O2
(г/м3)
Тmin Tmax R s Состояние
почвы
15 21.09.17 060 (СВ) 10 км  слаб. ливневой дождь  10/0 кучево-дожд. 
[Cb cap]
+13.6 +12.6 94 +18  1019.8  -0.2  764  290           
18 21.09.17 030 (СВ) 4000 м  слаб. ливневой дождь  10/0 кучево-дожд. 
[Cb cap]
+12.8 +11.9 94 +16  1019.1  -0.7  764  291    +14.9  10     
21 21.09.17 070 (В) 10 км  {ливн. осадки}  10/0 
[Sc]
+13 +11.5 91 +16  1018.9  -0.2  764  291           
00 22.09.17 060 (СВ) 10 км  {ливн. осадки}  10/0 
[Sc]
+13.2 +11.5 89 +16  1019  0.1  761  290           
03 22.09.17 070 (В) 10 км  в посл. час ливневой дождь  5/0 средняя, верхняя 
[Ac und|Ci fib]
+12.4 +11.5 94 +15  1017.8  -1.2  763  291           
06 22.09.17 080 (В) 10 км  {ливн. осадки}  10/0 средняя, верхняя 
[Cu med, cong|Ac lent|Ci fib]
+12.8 +11.5 92 +15  1019.5  1.7  764  291  +12       
09 22.09.17 090 (В) 10 км    10/0 средняя, верхняя 
[Ac und|Cs]
+15.5 +12 80 +19  1020.5  1.1  765  289           
12 22.09.17 080 (В) 10 км    10/0 верхняя 
[Cs]
+16.9 +12.2 74 +21  1021.3  0.8  763  287           
15 22.09.17 020 (С) 2{10}  10 км    10/0 верхняя 
[Cc]
+16.6 +13.1 80 +22  1021.4  0.1  765  287           
18 22.09.17 070 (В) 2{10}  10 км    3/0 верхняя 
[Ci fib]
+13.9 +13 94 +19  1022.4  0.9  766  290    +17       
21 22.09.17 090 (В) 10 км    3/0 верхняя 
[Ci fib]
+14.7 +12.8 88 +20  1023.3  0.9  767  290           
00 23.09.17 100 (В) 10 км    3/0 верхняя 
[Ci fib]
+13.9 +12 88 +17  1024.4  1.1  765  291           
03 23.09.17 090 (В) 10 км    1/0 верхняя 
[Ci fib]
+12.6 +10.6 88 +14  1024.5  0.1  768  293           
06 23.09.17 090 (В) 10 км    3/0 верхняя 
[Ci fib]
+12.5 +10.1 85 +13  1025.3  0.8  768  293  +11.7         
09 23.09.17 100 (В) 10 км    4/0 верхняя 
[Ci fib]
+15.8 +10 68 +17  1025.4  0.1  768  290           
12 23.09.17 100 (В) 20000 м    5/0 верхняя 
[Cc]
+19.7 +10.9 57 +23  1025  -0.3  766  286           
15 23.09.17 090 (В) 20000 м    8/0 верхняя 
[Cc]
+19.3 +11.3 60 +22  1025.9  0.9  769  287           
18 23.09.17 090 (В) 10 км    ясно 
+16.2 +10.9 71 +18  1027.4  1.4  770  290    +20.2       
21 23.09.17 100 (В) 10 км    ясно 
+14.4 +10.7 78 +17  1028.4  771  292           
00 24.09.17 100 (В) 10 км    ясно 
+12.9 +10 83 +14  1029.1  0.7  769  294           
03 24.09.17 080 (В) 10 км    ясно 
+11.6 +9.4 86 +11  1029.9  0.8  772  296           
06 24.09.17 100 (В) 10 км    ясно 
+11.8 +9.1 84 +12  1030.7  0.8  772  296  +10.9         
09 24.09.17 090 (В) 10 км    ясно 
+17.3 +9.1 59 +18  1031.5  0.8  773  291           
12 24.09.17 100 (В) 4{10}  20000 м    ясно 
+19.7 +8.9 50 +20  1031.5  0.1  771  288           
15 24.09.17 090 (В) 20000 м    ясно 
+19.4 +9.8 54 +20  1031.6  0.1  773  288           
Время (UTC), дата Ветер
(°,м/с) 
Видим.   Явления Облачность Т
(°С)
Тd
(°С)
f(%) Тe
(°С)
Pmin
(гПа)
dP
(гПа)
Po
(мм)
O2
(г/м3)
Тmin Tmax R s Состояние
почвы

Для получения пояснительной информации подведите курсор к названию столбца.

ПОГОДА в Риге - архив

Всё, что Вы хотите узнать о погоде в Риге - удобно и подробно!

Выберите нужную дату (начиная с 1 января 2015* года) и нажмите кнопку "Найти".
Будут отображены архивные сводки погоды по пункту Рига, начиная с указанной даты.


Отображать данные в формате CSV (для использования в таблицах Excel)


Внимание! Наш архив погоды предназначен исключительно для личного некоммерческого использования в познавательных целях. Если Вам необходимы официальные справки о состоянии погоды (для производственных, юридических, коммерческих и т.п. целей), обращайтесь в органы Росгидромета.

*Примечание: данная дата относится к архиву по метеостанциям СССР (Россия, СНГ, Балтия).
Архив по метеостанциям Зарубежной Европы и Азии (кроме Китая) хранится 10 дней, по другим регионам земного шара (Китай, Африка, Америка, Австралия, Океания) - 1 день.

Рига - район местоположения метеостанции


Название, широта, долгота, высота метеостанции:
Рига 57°ш. 24.1°д. 7 м над ур. моря [Латвия]

Дополнительная информация

В oтличие oт бoльшинства пoгoдных сайтoв мы публикуем пoдрoбную метеoинфoрмацию в детальнoм прoфессиoнальнoм фoрмате.

Характеристики температуры и влажнoсти вoздуха измеряются на высoте 2 м в тени вдали oт зданий и деревьев.
Скoрoсть ветра измеряется на высoте 10 м (на урoвне рoста челoвека скoрoсть ветра ниже в 1.5-2 раза). Если метеoстанция нахoдится в гoрoде или в лесу, тo скoрoсть ветра занижена на 2-4 м/с пo сравнению с oткрытым местoм. Скoрoсть ветра над акватoриями крупных рек и oзёр, а также на вершинах хoлмoв на 2-5 м/с выше, чем в oбычных услoвиях.
Атмoсфернoе давление в разных тoчках местнoсти мoжет значительнo oтличаться oт давления на метеoстанции, в зависимoсти oт услoвий рельефа (при пoдъёме на 10 м давление пoнижается примернo на 1 мм рт.ст.).